Location: *
(51.1248°S, 108.4023°W)
Time: 19:10:51
(UTC+00:00)

USA 281 - Pass Details

Date: 26 October 2021
Orbit: 1078 x 1081 km, 106.0° (Epoch: 25 November)

Event Time Altitude Azimuth Distance (km) Brightness Sun altitude
Exits shadow 05:10:53 - 322° (NW) 3,741 5.8 -22.3°
Reaches altitude 10° 05:14:43 10° 297° (WNW) 2,935 5.5 -22.5°
Maximum altitude 05:17:28 13° 272° (W) 2,738 5.6 -22.7°
Drops below altitude 10° 05:20:14 10° 247° (WSW) 2,950 6.1 -22.9°
Sets 05:24:39 0° 220° (SW) 3,917 7.5 -23.2°
